sat.trackr.live / text

‹ back to catalog

STARLINK-4664

NORAD 53777 · 2022-111E

PAYLOAD ACTIVE UNKNOWN

§ Identity

Operator
Country
US
Launch date
2022-09-11
Launch site
AFETR
Launch vehicle
Mass (kg)
RCS (m²)

Purposes: comms

External: N2YO · Heavens-Above · Gunter

§ Orbital elements

Epoch: 2026-05-25T03:05:11.382144Z

Period
95.44 min
Inclination
53.2144°
Eccentricity
0.0001299
Mean motion
15.08836764 rev/d
Perigee alt
538.9 km
Apogee alt
540.7 km
Semi-major
6,917.9 km
B*
6.8484e-5
RAAN
291.1278°
Arg perigee
87.8872°
Mean anomaly
272.2269°
Rev number
20,523

§ Raw data

STARLINK-46641 53777U 22111E   26145.12860396  .00000802  00000+0  68484-4 0  99922 53777  53.2144 291.1278 0001299  87.8872 272.2269 15.08836764205231

JSON: /api/v1/satellites/53777 · /tle

For live sub-satellite position, see the globe view (requires WebGL).

§ Visibility from observer

Set your observer location to see the next 7 days of passes ≥ 10°. The values pass through the URL so the page stays shareable.

No JS? Fill the form by hand. The geolocation button needs JavaScript.